| time (UTC) | temp F | wind direction | speed MPH | gust MPH | rain 1hr in | rain 24hr in | rain mn in | humidity % | barometer mb |
| 20260507232936 | 51 | 184 | 3.0 | 10.0 | 0.01 | 0.08 | 0.03 | 96 | 1003.2 |
| 20260507225319 | 52 | 213 | 4.0 | 17.0 | 0.02 | 0.07 | 0.02 | 96 | 1003.3 |
| 20260507215934 | 52 | 175 | 7.0 | 16.0 | 0.03 | 0.09 | 0.02 | 96 | 1003.2 |
| 20260507211127 | 52 | 223 | 6.0 | 17.0 | 0.04 | 0.09 | 0.02 | 96 | 1003.4 |
| 20260507202926 | 52 | 178 | 6.0 | 14.0 | 0.04 | 0.09 | 0.02 | 96 | 1003.7 |
| 20260507194230 | 53 | 179 | 6.0 | 19.0 | 0.03 | 0.07 | 0.00 | 96 | 1003.9 |
| 20260507190052 | 53 | 180 | 7.0 | 21.0 | 0.02 | 0.06 | 0.06 | 96 | 1004.4 |
| 20260507182203 | 53 | 185 | 7.0 | 17.0 | 0.01 | 0.05 | 0.05 | 96 | 1004.1 |
| 20260507173356 | 53 | 179 | 4.0 | 19.0 | 0.02 | 0.05 | 0.05 | 95 | 1004.5 |
| 20260507165032 | 53 | 190 | 5.0 | 15.0 | 0.01 | 0.04 | 0.04 | 95 | 1004.8 |
| 20260507160711 | 53 | 173 | 4.0 | 16.0 | 0.01 | 0.04 | 0.04 | 95 | 1005.4 |
| 20260507152606 | 53 | 175 | 3.0 | 15.0 | 0.01 | 0.04 | 0.04 | 95 | 1005.7 |
| 20260507144236 | 53 | 186 | 10.0 | 22.0 | 0.00 | 0.03 | 0.03 | 94 | 1006.2 |
| 20260507140040 | 53 | 195 | 9.0 | 18.0 | 0.00 | 0.03 | 0.03 | 94 | 1006.4 |
| 20260507132019 | 53 | 207 | 6.0 | 23.0 | 0.00 | 0.03 | 0.03 | 94 | 1006.6 |
| 20260507124031 | 53 | 207 | 5.0 | 19.0 | 0.00 | 0.03 | 0.03 | 94 | 1006.9 |
| 20260507115713 | 53 | 200 | 8.0 | 19.0 | 0.00 | 0.03 | 0.03 | 94 | 1007.2 |
| 20260507111949 | 53 | 195 | 7.0 | 23.0 | 0.00 | 0.03 | 0.03 | 93 | 1007.5 |
| 20260507103855 | 53 | 167 | 7.0 | 20.0 | 0.00 | 0.03 | 0.03 | 93 | 1007.7 |
| 20260507095627 | 53 | 179 | 5.0 | 20.0 | 0.01 | 0.03 | 0.03 | 94 | 1007.5 |
| 20260507090937 | 53 | 141 | 9.0 | 18.0 | 0.01 | 0.03 | 0.03 | 93 | 1007.8 |
| 20260507083053 | 53 | 180 | 4.0 | 19.0 | 0.01 | 0.03 | 0.03 | 93 | 1007.5 |